Overview Statistics Trail Chart Weather Telemetry Raw packets
 

This is the latest recevied weather packets stored in our database for station/object KE6YLF. If no packets are shown the sender has not sent any weather packets the latest 10 day(s).

<< 104 105 106 107 108 109 110 >>
Time Temp. Humidity Pressure Rain* Wind** Luminosity Snow
1787903874 33.89° C 37% 1075.5 hPa 0 mm - - -
1787903570 32.78° C 38% 1075.5 hPa 0 mm - - -
1787903264 32.78° C 38% 1075.4 hPa 0 mm - - -
1787902961 33.89° C 37% 1075.7 hPa 0 mm - - -
1787902657 33.89° C 37% 1075.6 hPa 0 mm - - -
1787902352 33.33° C 37% 1075.5 hPa 0 mm - - -
1787902048 33.89° C 36% 1075.3 hPa 0 mm - - -
1787901744 33.89° C 36% 1075.5 hPa 0 mm - - -
1787901445 33.33° C 36% 1075.4 hPa 0 mm - - -
1787901135 33.33° C 36% 1075.3 hPa 0 mm - - -
1787900834 33.89° C 35% 1075.2 hPa 0 mm - - -
1787900530 34.44° C 35% 1075.2 hPa 0 mm - - -
1787900229 34.44° C 35% 1075.2 hPa 0 mm - - -
1787899924 35° C 34% 1075.3 hPa 0 mm - - -
1787899620 34.44° C 35% 1075.3 hPa 0 mm - - -
1787899315 34.44° C 35% 1075.2 hPa 0 mm - - -
1787899010 35° C 34% 1075.2 hPa 0 mm - - -
1787898706 34.44° C 35% 1075.2 hPa 0 mm - - -
1787898404 34.44° C 34% 1075 hPa 0 mm - - -
1787898104 35° C 33% 1074.7 hPa 0 mm - - -
1787897800 35.56° C 33% 1074.9 hPa 0 mm - - -
1787897499 35.56° C 33% 1075 hPa 0 mm - - -
1787897198 35.56° C 33% 1075 hPa 0 mm - - -
1787896893 36.11° C 32% 1074.9 hPa 0 mm - - -
1787896587 36.11° C 32% 1074.9 hPa 0 mm - - -

* Rain latest hour (hover to see other rain measurements)
** Current wind speed in m/s (hover to see current wind gust speed)